Time,TemperatureF,DewpointF,PressureIn,WindDirection,WindDirectionDegrees,WindSpeedMPH,WindSpeedGustMPH,Humidity,HourlyPrecipIn,Conditions,Clouds,dailyrainin,SoftwareType,DateUTC
2013-02-13 00:01:00,48.0,-99.9,30.50,WSW,243,8.0,10.0,-999,-99.99,,,-99.99,,2013-02-13 08:01:00,
2013-02-13 00:11:00,48.0,-99.9,30.50,WSW,252,5.0,9.0,-999,-99.99,,,-99.99,,2013-02-13 08:11:00,
2013-02-13 00:22:00,48.0,-99.9,30.50,WSW,244,6.0,9.0,-999,-99.99,,,-99.99,,2013-02-13 08:22:00,
2013-02-13 00:32:00,48.0,-99.9,30.50,WSW,255,8.0,10.0,-999,-99.99,,,-99.99,,2013-02-13 08:32:00,
2013-02-13 00:43:00,48.0,-99.9,30.50,West,268,8.0,11.0,-999,-99.99,,,-99.99,,2013-02-13 08:43:00,
2013-02-13 00:52:00,47.0,-99.9,30.49,WSW,246,5.0,8.0,-999,-99.99,,,-99.99,,2013-02-13 08:52:00,
2013-02-13 01:02:00,48.0,-99.9,30.49,WSW,246,4.0,7.0,-999,-99.99,,,-99.99,,2013-02-13 09:02:00,
2013-02-13 01:11:00,48.0,-99.9,30.49,WSW,239,6.0,8.0,-999,-99.99,,,-99.99,,2013-02-13 09:11:00,
2013-02-13 01:21:00,48.0,-99.9,30.49,SW,228,6.0,8.0,-999,-99.99,,,-99.99,,2013-02-13 09:21:00,
2013-02-13 01:32:00,48.0,-99.9,30.49,SW,231,5.0,8.0,-999,-99.99,,,-99.99,,2013-02-13 09:32:00,
2013-02-13 01:42:00,48.0,-99.9,30.48,SW,232,7.0,10.0,-999,-99.99,,,-99.99,,2013-02-13 09:42:00,
2013-02-13 01:52:00,48.0,-99.9,30.48,WSW,237,6.0,8.0,-999,-99.99,,,-99.99,,2013-02-13 09:52:00,
2013-02-13 02:01:00,48.0,-99.9,30.48,WSW,249,6.0,9.0,-999,-99.99,,,-99.99,,2013-02-13 10:01:00,
2013-02-13 02:11:00,48.0,-99.9,30.49,WSW,252,6.0,10.0,-999,-99.99,,,-99.99,,2013-02-13 10:11:00,
2013-02-13 02:22:00,48.0,-99.9,30.49,WSW,254,5.0,9.0,-999,-99.99,,,-99.99,,2013-02-13 10:22:00,
2013-02-13 02:32:00,48.0,-99.9,30.48,West,273,5.0,7.0,-999,-99.99,,,-99.99,,2013-02-13 10:32:00,
2013-02-13 02:42:00,48.0,-99.9,30.48,West,269,4.0,7.0,-999,-99.99,,,-99.99,,2013-02-13 10:42:00,
2013-02-13 02:52:00,48.0,-99.9,30.48,West,265,6.0,10.0,-999,-99.99,,,-99.99,,2013-02-13 10:52:00,
2013-02-13 03:01:00,47.0,-99.9,30.48,West,278,7.0,10.0,-999,-99.99,,,-99.99,,2013-02-13 11:01:00,
2013-02-13 03:11:00,48.0,-99.9,30.48,West,278,7.0,9.0,-999,-99.99,,,-99.99,,2013-02-13 11:11:00,
2013-02-13 03:22:00,48.0,-99.9,30.48,West,270,9.0,11.0,-999,-99.99,,,-99.99,,2013-02-13 11:22:00,
2013-02-13 03:32:00,47.0,-99.9,30.48,West,272,8.0,10.0,-999,-99.99,,,-99.99,,2013-02-13 11:32:00,
2013-02-13 03:42:00,47.0,-99.9,30.48,West,275,8.0,11.0,-999,-99.99,,,-99.99,,2013-02-13 11:42:00,
2013-02-13 03:52:00,47.0,-99.9,30.48,WNW,283,9.0,10.0,-999,-99.99,,,-99.99,,2013-02-13 11:52:00,
2013-02-13 04:02:00,47.0,-99.9,30.48,West,276,4.0,7.0,-999,-99.99,,,-99.99,,2013-02-13 12:02:00,
2013-02-13 04:11:00,47.0,-99.9,30.48,West,272,4.0,5.0,-999,-99.99,,,-99.99,,2013-02-13 12:11:00,
2013-02-13 04:22:00,47.0,-99.9,30.48,West,276,5.0,6.0,-999,-99.99,,,-99.99,,2013-02-13 12:22:00,
2013-02-13 04:32:00,48.0,-99.9,30.48,West,270,5.0,8.0,-999,-99.99,,,-99.99,,2013-02-13 12:32:00,
2013-02-13 04:42:00,48.0,-99.9,30.47,West,268,4.0,6.0,-999,-99.99,,,-99.99,,2013-02-13 12:42:00,
2013-02-13 04:52:00,48.0,-99.9,30.47,West,270,5.0,7.0,-999,-99.99,,,-99.99,,2013-02-13 12:52:00,
2013-02-13 05:02:00,48.0,-99.9,30.47,WSW,251,4.0,6.0,-999,-99.99,,,-99.99,,2013-02-13 13:02:00,
2013-02-13 05:11:00,48.0,-99.9,30.47,WSW,250,4.0,6.0,-999,-99.99,,,-99.99,,2013-02-13 13:11:00,
2013-02-13 05:21:00,48.0,-99.9,30.47,SW,236,4.0,6.0,-999,-99.99,,,-99.99,,2013-02-13 13:21:00,
2013-02-13 05:32:00,48.0,-99.9,30.47,SW,234,4.0,6.0,-999,-99.99,,,-99.99,,2013-02-13 13:32:00,
2013-02-13 05:42:00,48.0,-99.9,30.47,SW,226,4.0,7.0,-999,-99.99,,,-99.99,,2013-02-13 13:42:00,
2013-02-13 05:52:00,48.0,-99.9,30.47,SW,225,6.0,8.0,-999,-99.99,,,-99.99,,2013-02-13 13:52:00,
2013-02-13 06:01:00,48.0,-99.9,30.47,SW,227,6.0,10.0,-999,-99.99,,,-99.99,,2013-02-13 14:01:00,
2013-02-13 06:11:00,47.0,-99.9,30.47,SW,234,4.0,7.0,-999,-99.99,,,-99.99,,2013-02-13 14:11:00,
2013-02-13 06:22:00,47.0,-99.9,30.47,SW,230,6.0,9.0,-999,-99.99,,,-99.99,,2013-02-13 14:22:00,
2013-02-13 06:32:00,47.0,-99.9,30.47,SW,227,6.0,9.0,-999,-99.99,,,-99.99,,2013-02-13 14:32:00,
2013-02-13 06:42:00,47.0,-99.9,30.47,SW,228,6.0,10.0,-999,-99.99,,,-99.99,,2013-02-13 14:42:00,
2013-02-13 06:52:00,47.0,-99.9,30.47,SW,220,5.0,7.0,-999,-99.99,,,-99.99,,2013-02-13 14:52:00,
2013-02-13 07:02:00,47.0,-99.9,30.47,SW,229,6.0,8.0,-999,-99.99,,,-99.99,,2013-02-13 15:02:00,
2013-02-13 07:11:00,47.0,-99.9,30.47,WSW,237,3.0,7.0,-999,-99.99,,,-99.99,,2013-02-13 15:11:00,
2013-02-13 07:22:00,47.0,-99.9,30.47,SW,224,6.0,11.0,-999,-99.99,,,-99.99,,2013-02-13 15:22:00,
2013-02-13 07:32:00,47.0,-99.9,30.47,WSW,241,5.0,7.0,-999,-99.99,,,-99.99,,2013-02-13 15:32:00,
2013-02-13 07:42:00,47.0,-99.9,30.47,SSW,213,7.0,9.0,-999,-99.99,,,-99.99,,2013-02-13 15:42:00,
2013-02-13 07:52:00,47.0,-99.9,30.48,SW,218,6.0,10.0,-999,-99.99,,,-99.99,,2013-02-13 15:52:00,
2013-02-13 08:02:00,47.0,-99.9,30.48,SW,219,6.0,8.0,-999,-99.99,,,-99.99,,2013-02-13 16:02:00,
2013-02-13 08:12:00,47.0,-99.9,30.48,SW,214,6.0,11.0,-999,-99.99,,,-99.99,,2013-02-13 16:12:00,
2013-02-13 08:21:00,47.0,-99.9,30.48,SW,221,5.0,8.0,-999,-99.99,,,-99.99,,2013-02-13 16:21:00,
2013-02-13 08:32:00,47.0,-99.9,30.48,SSW,206,6.0,11.0,-999,-99.99,,,-99.99,,2013-02-13 16:32:00,
2013-02-13 08:42:00,47.0,-99.9,30.48,SW,221,6.0,11.0,-999,-99.99,,,-99.99,,2013-02-13 16:42:00,
2013-02-13 08:52:00,48.0,-99.9,30.49,NW,310,4.0,11.0,-999,-99.99,,,-99.99,,2013-02-13 16:52:00,
2013-02-13 09:02:00,48.0,-99.9,30.48,NW,308,6.0,8.0,-999,-99.99,,,-99.99,,2013-02-13 17:02:00,
2013-02-13 09:11:00,48.0,-99.9,30.49,NW,312,7.0,9.0,-999,-99.99,,,-99.99,,2013-02-13 17:11:00,
2013-02-13 09:21:00,48.0,-99.9,30.49,NW,307,6.0,10.0,-999,-99.99,,,-99.99,,2013-02-13 17:21:00,
2013-02-13 09:32:00,48.0,-99.9,30.49,NW,305,4.0,8.0,-999,-99.99,,,-99.99,,2013-02-13 17:32:00,
2013-02-13 09:42:00,48.0,-99.9,30.49,WNW,292,6.0,7.0,-999,-99.99,,,-99.99,,2013-02-13 17:42:00,
2013-02-13 09:52:00,48.0,-99.9,30.50,NW,320,6.0,10.0,-999,-99.99,,,-99.99,,2013-02-13 17:52:00,
2013-02-13 10:02:00,48.0,-99.9,30.50,NW,309,4.0,6.0,-999,-99.99,,,-99.99,,2013-02-13 18:02:00,
2013-02-13 10:11:00,47.0,-99.9,30.50,WNW,295,5.0,9.0,-999,-99.99,,,-99.99,,2013-02-13 18:11:00,
2013-02-13 10:23:00,47.0,-99.9,30.50,WNW,300,6.0,9.0,-999,-99.99,,,-99.99,,2013-02-13 18:23:00,
2013-02-13 10:32:00,47.0,-99.9,30.51,NW,319,8.0,10.0,-999,-99.99,,,-99.99,,2013-02-13 18:32:00,
2013-02-13 10:42:00,47.0,-99.9,30.51,NW,321,8.0,11.0,-999,-99.99,,,-99.99,,2013-02-13 18:42:00,
2013-02-13 10:52:00,47.0,-99.9,30.51,NNW,332,6.0,8.0,-999,-99.99,,,-99.99,,2013-02-13 18:52:00,
2013-02-13 11:01:00,47.0,-99.9,30.51,NW,321,9.0,11.0,-999,-99.99,,,-99.99,,2013-02-13 19:01:00,
2013-02-13 11:11:00,47.0,-99.9,30.51,NNW,335,6.0,11.0,-999,-99.99,,,-99.99,,2013-02-13 19:11:00,
2013-02-13 11:21:00,47.0,-99.9,30.52,North,349,6.0,10.0,-999,-99.99,,,-99.99,,2013-02-13 19:21:00,
2013-02-13 11:32:00,47.0,-99.9,30.52,NNW,344,6.0,10.0,-999,-99.99,,,-99.99,,2013-02-13 19:32:00,
2013-02-13 11:42:00,47.0,-99.9,30.52,NNW,335,6.0,9.0,-999,-99.99,,,-99.99,,2013-02-13 19:42:00,
2013-02-13 11:52:00,47.0,-99.9,30.52,NNW,341,4.0,8.0,-999,-99.99,,,-99.99,,2013-02-13 19:52:00,
2013-02-13 12:02:00,47.0,-99.9,30.51,NNW,332,5.0,9.0,-999,-99.99,,,-99.99,,2013-02-13 20:02:00,
2013-02-13 12:11:00,47.0,-99.9,30.51,NNW,328,4.0,6.0,-999,-99.99,,,-99.99,,2013-02-13 20:11:00,
2013-02-13 12:22:00,47.0,-99.9,30.51,NW,320,3.0,4.0,-999,-99.99,,,-99.99,,2013-02-13 20:22:00,
2013-02-13 12:32:00,47.0,-99.9,30.51,NW,305,3.0,4.0,-999,-99.99,,,-99.99,,2013-02-13 20:32:00,
2013-02-13 12:42:00,47.0,-99.9,30.50,NW,308,3.0,4.0,-999,-99.99,,,-99.99,,2013-02-13 20:42:00,
2013-02-13 12:52:00,47.0,-99.9,30.50,NW,318,3.0,4.0,-999,-99.99,,,-99.99,,2013-02-13 20:52:00,
2013-02-13 13:02:00,47.0,-99.9,30.50,WNW,283,3.0,4.0,-999,-99.99,,,-99.99,,2013-02-13 21:02:00,
2013-02-13 13:11:00,47.0,-99.9,30.50,WNW,292,3.0,5.0,-999,-99.99,,,-99.99,,2013-02-13 21:11:00,
2013-02-13 13:22:00,47.0,-99.9,30.49,NW,312,3.0,5.0,-999,-99.99,,,-99.99,,2013-02-13 21:22:00,
2013-02-13 13:32:00,47.0,-99.9,30.50,WNW,300,5.0,7.0,-999,-99.99,,,-99.99,,2013-02-13 21:32:00,
2013-02-13 13:43:00,47.0,-99.9,30.50,NW,314,5.0,7.0,-999,-99.99,,,-99.99,,2013-02-13 21:43:00,
2013-02-13 13:52:00,48.0,-99.9,30.49,WNW,295,5.0,9.0,-999,-99.99,,,-99.99,,2013-02-13 21:52:00,
2013-02-13 14:02:00,47.0,-99.9,30.49,WNW,300,5.0,7.0,-999,-99.99,,,-99.99,,2013-02-13 22:02:00,
2013-02-13 14:11:00,48.0,-99.9,30.49,WNW,298,6.0,8.0,-999,-99.99,,,-99.99,,2013-02-13 22:11:00,
2013-02-13 14:21:00,48.0,-99.9,30.49,WNW,286,7.0,8.0,-999,-99.99,,,-99.99,,2013-02-13 22:21:00,
2013-02-13 14:32:00,48.0,-99.9,30.49,NW,304,5.0,8.0,-999,-99.99,,,-99.99,,2013-02-13 22:32:00,
2013-02-13 14:42:00,48.0,-99.9,30.48,WNW,295,5.0,7.0,-999,-99.99,,,-99.99,,2013-02-13 22:42:00,
2013-02-13 14:52:00,48.0,-99.9,30.48,NW,304,5.0,8.0,-999,-99.99,,,-99.99,,2013-02-13 22:52:00,
2013-02-13 15:02:00,48.0,-99.9,30.48,NW,315,4.0,7.0,-999,-99.99,,,-99.99,,2013-02-13 23:02:00,
2013-02-13 15:11:00,48.0,-99.9,30.48,WNW,297,2.0,5.0,-999,-99.99,,,-99.99,,2013-02-13 23:11:00,
2013-02-13 15:22:00,48.0,-99.9,30.48,NW,310,5.0,7.0,-999,-99.99,,,-99.99,,2013-02-13 23:22:00,
2013-02-13 15:32:00,48.0,-99.9,30.48,WNW,298,4.0,6.0,-999,-99.99,,,-99.99,,2013-02-13 23:32:00,
2013-02-13 15:42:00,48.0,-99.9,30.49,WNW,301,4.0,6.0,-999,-99.99,,,-99.99,,2013-02-13 23:42:00,
2013-02-13 15:53:00,48.0,-99.9,30.49,NW,309,5.0,7.0,-999,-99.99,,,-99.99,,2013-02-13 23:53:00,
2013-02-13 16:02:00,48.0,-99.9,30.49,West,281,5.0,6.0,-999,-99.99,,,-99.99,,2013-02-14 00:02:00,
2013-02-13 16:11:00,48.0,-99.9,30.49,WNW,287,4.0,8.0,-999,-99.99,,,-99.99,,2013-02-14 00:11:00,
2013-02-13 16:22:00,48.0,-99.9,30.49,WNW,282,4.0,6.0,-999,-99.99,,,-99.99,,2013-02-14 00:22:00,
2013-02-13 16:32:00,49.0,-99.9,30.49,WNW,298,4.0,6.0,-999,-99.99,,,-99.99,,2013-02-14 00:32:00,
2013-02-13 16:43:00,49.0,-99.9,30.49,WNW,288,3.0,5.0,-999,-99.99,,,-99.99,,2013-02-14 00:43:00,
2013-02-13 16:52:00,48.0,-99.9,30.49,WNW,288,4.0,7.0,-999,-99.99,,,-99.99,,2013-02-14 00:52:00,
2013-02-13 17:01:00,48.0,-99.9,30.48,West,279,2.0,5.0,-999,-99.99,,,-99.99,,2013-02-14 01:01:00,
2013-02-13 17:11:00,49.0,-99.9,30.48,WNW,294,2.0,5.0,-999,-99.99,,,-99.99,,2013-02-14 01:11:00,
2013-02-13 17:21:00,48.0,-99.9,30.48,WNW,291,3.0,4.0,-999,-99.99,,,-99.99,,2013-02-14 01:21:00,
2013-02-13 17:32:00,48.0,-99.9,30.48,NW,304,2.0,2.0,-999,-99.99,,,-99.99,,2013-02-14 01:32:00,
2013-02-13 17:42:00,48.0,-99.9,30.48,WNW,293,1.0,2.0,-999,-99.99,,,-99.99,,2013-02-14 01:42:00,
2013-02-13 17:52:00,48.0,-99.9,30.48,NW,319,3.0,3.0,-999,-99.99,,,-99.99,,2013-02-14 01:52:00,
2013-02-13 18:02:00,48.0,-99.9,30.49,NNW,328,3.0,4.0,-999,-99.99,,,-99.99,,2013-02-14 02:02:00,
2013-02-13 18:11:00,48.0,-99.9,30.49,NNE,22,1.0,3.0,-999,-99.99,,,-99.99,,2013-02-14 02:11:00,
2013-02-13 18:21:00,47.0,-99.9,30.49,NE,47,1.0,2.0,-999,-99.99,,,-99.99,,2013-02-14 02:21:00,
2013-02-13 18:32:00,47.0,-99.9,30.49,NE,39,1.0,3.0,-999,-99.99,,,-99.99,,2013-02-14 02:32:00,
2013-02-13 18:42:00,47.0,-99.9,30.49,NE,39,1.0,3.0,-999,-99.99,,,-99.99,,2013-02-14 02:42:00,
2013-02-13 18:52:00,47.0,-99.9,30.49,NE,39,1.0,3.0,-999,-99.99,,,-99.99,,2013-02-14 02:52:00,
2013-02-13 19:02:00,47.0,-99.9,30.50,ESE,111,3.0,4.0,-999,-99.99,,,-99.99,,2013-02-14 03:02:00,
2013-02-13 19:12:00,47.0,-99.9,30.50,ESE,118,3.0,4.0,-999,-99.99,,,-99.99,,2013-02-14 03:12:00,
2013-02-13 19:22:00,46.0,-99.9,30.50,ESE,106,3.0,4.0,-999,-99.99,,,-99.99,,2013-02-14 03:22:00,
2013-02-13 19:32:00,46.0,-99.9,30.49,East,94,4.0,5.0,-999,-99.99,,,-99.99,,2013-02-14 03:32:00,
2013-02-13 19:42:00,46.0,-99.9,30.49,East,95,4.0,5.0,-999,-99.99,,,-99.99,,2013-02-14 03:42:00,
2013-02-13 19:52:00,46.0,-99.9,30.50,ESE,106,5.0,6.0,-999,-99.99,,,-99.99,,2013-02-14 03:52:00,
2013-02-13 20:01:00,46.0,-99.9,30.50,East,96,3.0,5.0,-999,-99.99,,,-99.99,,2013-02-14 04:01:00,
2013-02-13 20:12:00,46.0,-99.9,30.50,East,97,3.0,4.0,-999,-99.99,,,-99.99,,2013-02-14 04:12:00,
2013-02-13 20:21:00,46.0,-99.9,30.50,ESE,122,4.0,4.0,-999,-99.99,,,-99.99,,2013-02-14 04:21:00,
2013-02-13 20:32:00,46.0,-99.9,30.50,ESE,114,4.0,4.0,-999,-99.99,,,-99.99,,2013-02-14 04:32:00,
2013-02-13 20:42:00,46.0,-99.9,30.50,SE,124,4.0,5.0,-999,-99.99,,,-99.99,,2013-02-14 04:42:00,
2013-02-13 20:52:00,46.0,-99.9,30.50,ESE,114,5.0,5.0,-999,-99.99,,,-99.99,,2013-02-14 04:52:00,
2013-02-13 21:02:00,46.0,-99.9,30.50,ESE,106,4.0,5.0,-999,-99.99,,,-99.99,,2013-02-14 05:02:00,
2013-02-13 21:11:00,46.0,-99.9,30.50,ESE,111,4.0,5.0,-999,-99.99,,,-99.99,,2013-02-14 05:11:00,
2013-02-13 21:22:00,46.0,-99.9,30.50,East,97,3.0,5.0,-999,-99.99,,,-99.99,,2013-02-14 05:22:00,
2013-02-13 21:32:00,46.0,-99.9,30.51,East,97,3.0,4.0,-999,-99.99,,,-99.99,,2013-02-14 05:32:00,
2013-02-13 21:42:00,46.0,-99.9,30.52,ESE,111,2.0,3.0,-999,-99.99,,,-99.99,,2013-02-14 05:42:00,
2013-02-13 21:52:00,46.0,-99.9,30.51,ESE,122,3.0,3.0,-999,-99.99,,,-99.99,,2013-02-14 05:52:00,
2013-02-13 22:02:00,46.0,-99.9,30.51,SE,127,3.0,4.0,-999,-99.99,,,-99.99,,2013-02-14 06:02:00,
2013-02-13 22:11:00,46.0,-99.9,30.51,ESE,115,3.0,4.0,-999,-99.99,,,-99.99,,2013-02-14 06:11:00,
2013-02-13 22:22:00,46.0,-99.9,30.52,East,89,1.0,3.0,-999,-99.99,,,-99.99,,2013-02-14 06:22:00,
2013-02-13 22:32:00,46.0,-99.9,30.51,ESE,106,3.0,3.0,-999,-99.99,,,-99.99,,2013-02-14 06:32:00,
2013-02-13 22:42:00,46.0,-99.9,30.52,East,97,3.0,4.0,-999,-99.99,,,-99.99,,2013-02-14 06:42:00,
2013-02-13 22:52:00,46.0,-99.9,30.52,East,92,3.0,5.0,-999,-99.99,,,-99.99,,2013-02-14 06:52:00,
2013-02-13 23:01:00,46.0,-99.9,30.52,ESE,117,4.0,5.0,-999,-99.99,,,-99.99,,2013-02-14 07:01:00,
2013-02-13 23:11:00,46.0,-99.9,30.52,ESE,106,6.0,7.0,-999,-99.99,,,-99.99,,2013-02-14 07:11:00,
2013-02-13 23:22:00,46.0,-99.9,30.53,ESE,102,6.0,7.0,-999,-99.99,,,-99.99,,2013-02-14 07:22:00,
2013-02-13 23:32:00,46.0,-99.9,30.53,ESE,102,6.0,7.0,-999,-99.99,,,-99.99,,2013-02-14 07:32:00,
2013-02-13 23:42:00,46.0,-99.9,30.53,East,99,5.0,6.0,-999,-99.99,,,-99.99,,2013-02-14 07:42:00,
2013-02-13 23:52:00,46.0,-99.9,30.53,East,99,4.0,5.0,-999,-99.99,,,-99.99,,2013-02-14 07:52:00,